Regional Weather Roundup
Issued by NWS

Home | Current Version | Previous Version | Graphics & Text | Print | Product List | Glossary On
Versions: 1 2 3 4 5 6 7 8 9 10 11 12 13 14 15 16 17 18 19 20 21 22 23 24 25 26 27 28 29 30 31 32 33 34 35 36 37 38 39 40 41 42 43 44 45 46 47 48 49 50
000
ASUS43 KMKX 061420
RWRWI

WISCONSIN REGIONAL WEATHER ROUNDUP
NATIONAL WEATHER SERVICE MILWAUKEE/SULLIVAN WI
800 AM CST FRI MAR 06 2015

NOTE: "FAIR" INDICATES FEW OR NO CLOUDS BELOW 12,000 FEET WITH NO
SIGNIFICANT WEATHER AND/OR OBSTRUCTIONS TO VISIBILITY.

WIZ001-002-006>008-014>016-023>028-061500-
NORTHWEST WISCONSIN

CITY           SKY/WX    TMP DP  RH WIND       PRES   REMARKS
SUPERIOR ARPT  PTSUNNY   15   4  64 SW12      30.02R WCI   1
ASHLAND        CLOUDY    13   1  59 SW15      30.01S WCI  -3
HAYWARD        CLOUDY    11   1  64 S15       30.02S WCI  -5
SIREN          MOSUNNY   16   5  62 SW8       30.03S WCI   5
CUMBERLAND     CLOUDY    10   1  67 S8        30.03F WCI  -1
RICE LAKE      CLOUDY     9   1  71 SE7       30.07F WCI  -2
CHETEK         CLOUDY    11   1  66 S9        30.07F WCI  -2
LADYSMITH      CLOUDY     8   0  70 S9        30.09F WCI  -6
EAU CLAIRE     MOSUNNY    9  -1  64 S8        30.11F WCI  -3
MENOMONIE      CLOUDY    13   2  61 S9        30.11F WCI   1
NEW RICHMOND   CLOUDY    14   4  64 SW12      30.06F WCI   0
OSCEOLA        MOSUNNY   14   5  66 S8        30.08F WCI   3
$$

WIZ003>005-009-010-017-018-061500-
NORTH CENTRAL WISCONSIN

CITY           SKY/WX    TMP DP  RH WIND       PRES   REMARKS
MANITOWISH WTR CLOUDY     6  -1  70 S15       29.99F WCI -11
ARBOR VITAE    CLOUDY     5  -2  72 S9        30.02F WCI  -9
WOODRUFF       CLOUDY     5  -2  72 S9        30.02F WCI  -9
RHINELANDER    CLOUDY     6  -4  63 SW14      30.05F WCI -11
EAGLE RIVER    SUNNY      8  -3  61 SW14      30.02F WCI  -9
LAND O LAKES   CLOUDY     6  -2  67 SW10      30.00F WCI  -8
PHILLIPS       CLOUDY     9  -1  64 S10G18    30.03F WCI  -6
TOMAHAWK       MOSUNNY    2  -4  75 CALM      30.08F
MEDFORD        MOSUNNY    6  -2  69 S12       30.08F WCI -10
MERRILL        PTSUNNY    5  -3  70 SW10      30.11S WCI -10
$$

WIZ029-030-035-036-043>047-061500-
CENTRAL WISCONSIN

CITY           SKY/WX    TMP DP  RH WIND       PRES   REMARKS
WAUSAU         CLOUDY     2  -4  76 S7        30.12F WCI -11
MOSINEE        SUNNY      1  -2  85 S12       30.14F WCI -15
MARSHFIELD     MOSUNNY    3  -4  72 S9        30.13F WCI -12
STEVENS POINT  CLOUDY     4  -4  71 S10       30.18S WCI -11
WAUPACA        PTSUNNY    8  -2  65 S9        30.22F WCI  -6
WAUTOMA        PTSUNNY    4  -4  69 S6        30.24F WCI  -7
WISC RAPIDS    PTSUNNY    4  -4  69 S7        30.19F WCI  -8
CAMP DOUGLAS   MOSUNNY   10   1  67 S6        30.18F WCI   1
$$

WIZ011>013-019>022-031-037>040-048>050-061500-
NORTHEAST WISCONSIN

CITY           SKY/WX    TMP DP  RH WIND       PRES   REMARKS
ANTIGO         CLOUDY     3  -3  75 SW10      30.10S WCI -13
SHAWANO        PTSUNNY    7  -3  64 SW6       30.21F WCI  -3
OCONTO         PTSUNNY    8  -3  63 SW8       30.23F WCI  -5
STURGEON BAY   SUNNY      9  -2  61 SW14      30.23F WCI  -8
GREEN BAY      MOSUNNY    5  -2  72 S14       30.25F WCI -12
MANITOWOC      SUNNY     12   1  61 SW13      30.28F WCI  -3
APPLETON       MOSUNNY    7  -4  61 S12       30.25F WCI  -9
CLINTONVILLE   MOSUNNY    5  -4  66 S9        30.21F WCI  -9
OSHKOSH        MOSUNNY    6  -2  69 S16       30.26F WCI -12
$$

WIZ032>034-041-042-053>061-061500-
SOUTHWEST WISCONSIN

CITY           SKY/WX    TMP DP  RH WIND       PRES   REMARKS
LA CROSSE      SUNNY     11   1  64 S17       30.20F WCI  -6
SPARTA         SUNNY     13   1  59 SW6       30.20S WCI   4
VIROQUA        SUNNY      8   0  71 S9        30.17S WCI  -6
BOSCOBEL       MOSUNNY   11   2  67 SW8       30.26F WCI  -1
PRAIRIE DU CHI SUNNY     11   1  63 E5        30.25S WCI   3
PLATTEVILLE    MOSUNNY    8   1  73 SE14      30.25F WCI  -8
$$

WIZ056-057-062-063-064-067-068-061500-
SOUTH CENTRAL WISCONSIN

CITY           SKY/WX    TMP DP  RH WIND       PRES   REMARKS
REEDSBURG      SUNNY      6  -2  71 SW6       30.24S WCI  -5
BARABOO/DELLS  MOSUNNY   10   0  66 S12       30.22F WCI  -5
LONE ROCK      CLOUDY     8  -1  66 SE6       30.26F WCI  -2
MINERAL POINT  SUNNY      9   0  66 S10       30.23F WCI  -6
MADISON        PTSUNNY    8  -1  66 S13       30.29F WCI  -8
MIDDLETON      CLOUDY     9  -1  62 S12       30.28S WCI  -5
WATERTOWN      SUNNY      6  -2  71 S7        30.31S WCI  -6
MONROE         PTSUNNY    7   1  78 S18G24    30.27F WCI -12
JANESVILLE     SUNNY      9  -2  61 S13G20    30.33F WCI  -7
$$

WIZ051-052-058>065-066-070>072-061500-
SOUTHEAST WISCONSIN

CITY           SKY/WX    TMP DP  RH WIND       PRES   REMARKS
MILWAUKEE      MOSUNNY    5  -4  66 SW15      30.35F WCI -13
WAUKESHA       SUNNY      1  -6  71 S6        30.33F WCI -10
MILWAUKEE/TIMM SUNNY      7  -4  61 SW12      30.34F WCI  -9
RACINE         SUNNY      6  -3  66 SW10      30.38F WCI  -9
BURLINGTON     MOSUNNY    4  -1  79 S13       30.35F WCI -13
KENOSHA        SUNNY      7  -2  66 SW12      30.37F WCI  -8
FOND DU LAC    MOSUNNY    8  -2  63 SW17G24   30.27F WCI -10
SHEBOYGAN      SUNNY      7  -2  66 SW14      30.29F WCI -10
WEST BEND      SUNNY     10   0  61 SW8       30.30S WCI  -1
JUNEAU         MOSUNNY    4  -3  71 S14       30.30F WCI -13
$$

LSZ147-162-061500-
LAKE SUPERIOR

STATION/POSITION TIME  TEMP    WIND        PRES    WAVE
                       AIR SEA DIR/SP/G            HT/PER
                 (UTC) (F)     (DEG/KT/KT) (MB)    (FT/S)
DEVILS ISLAND    1400   15     230/ 20/ 25 1016.8R
PORT WING        1340   15     210/  9/ 15 1016.6R
SAXON HARBOR     1340   16     200/  8/ 18 1015.9F
$$

LMZ867-665-643>646-061500-
LAKE MICHIGAN

STATION/POSITION TIME  TEMP    WIND        PRES    WAVE
                       AIR SEA DIR/SP/G            HT/PER
                 (UTC) (F)     (DEG/KT/KT) (MB)    (FT/S)
NORTHPORT PIER   1401   12     200/  5/ 16 1023.0F
KEWAUNEE LAKESHO 1300    5     230/  8/ 13 1024.4F
SHEBOYGAN LAKESH 1400    9     210/ 12/ 14 1028.0F
PORT WASHINGTON  1340   10     240/  7/ 10 1028.1F
MILWAUKEE LAKESH 1400    9     230/ 14/ 18   N/A
KENOSHA   LAKESH 1400    8     210/ 10/ 15 1028.4F
$$

TC  - TEMPERATURE IN CELSIUS
VSB - VISIBILITY IN STATUTE MILES
WCI - WIND CHILL INDEX
HX  - HEAT INDEX



USA.gov is the U.S. government's official web portal to all federal, state and local government web resources and services.